Temp
-21 -21 -21 -22 -22 -23 -24 -26 -27 -29 -30 -30 -30 -30 -31 -31 -31 -31 -31 -31 -32 -32 -32 -32 -33 -32 -32 -32 -32 -32 -31 -31 -30 -30 -30 -30 -30 -30 -30 -29 -29 -29 -29 -29 -29 -29 -28 -28 -28 -28 -28 -28 -28 -28
-21 -21 -22 -22 -22 -23 -24 -25 -26 -28 -29 -30 -30 -30 -30 -30 -30 -31 -31 -31 -31 -31 -32 -32 -32 -32 -32 -32 -32 -32 -31 -31 -30 -30 -30 -29 -30 -30 -30 -29 -29 -29 -29 -29 -29 -29 -29 -29 -29 -29 -29 -29 -29 -29
-21 -21 -22 -22 -22 -23 -24 -24 -25 -27 -28 -30 -30 -30 -31 -30 -30 -30 -30 -31 -31 -31 -31 -31 -32 -32 -32 -32 -31 -31 -31 -31 -30 -30 -30 -30 -30 -29 -29 -29 -29 -29 -29 -29 -29 -29 -29 -29 -29 -29 -29 -29 -29 -29
-22 -22 -22 -22 -23 -23 -23 -24 -25 -26 -27 -29 -30 -30 -31 -31 -31 -31 -31 -31 -31 -31 -31 -31 -31 -31 -31 -31 -31 -31 -31 -30 -30 -30 -30 -30 -30 -30 -30 -29 -29 -29 -29 -29 -29 -29 -30 -29 -29 -29 -29 -29 -29 -29
-22 -22 -22 -23 -23 -23 -23 -24 -24 -25 -26 -27 -29 -30 -30 -30 -31 -31 -31 -31 -31 -31 -31 -31 -31 -31 -31 -31 -31 -30 -30 -30 -30 -30 -30 -30 -30 -30 -30 -30 -29 -29 -29 -29 -29 -29 -29 -30 -30 -30 -30 -29 -29 -29
-22 -22 -23 -23 -23 -23 -24 -24 -24 -24 -25 -26 -27 -29 -30 -30 -30 -30 -30 -31 -31 -31 -31 -31 -31 -31 -31 -31 -31 -31 -30 -30 -30 -30 -30 -30 -30 -29 -29 -29 -30 -30 -30 -29 -30 -30 -30 -30 -30 -30 -30 -30 -30 -29
-22 -22 -22 -23 -23 -23 -24 -24 -24 -24 -25 -25 -26 -27 -29 -30 -30 -30 -30 -30 -31 -31 -31 -31 -31 -31 -31 -31 -31 -31 -31 -30 -30 -30 -30 -30 -30 -30 -30 -30 -31 -30 -30 -30 -30 -30 -30 -30 -30 -30 -29 -29 -29 -29
-22 -22 -23 -23 -23 -24 -24 -24 -24 -24 -24 -25 -25 -26 -27 -29 -30 -30 -30 -30 -31 -31 -31 -31 -32 -32 -31 -31 -31 -31 -31 -31 -31 -31 -31 -31 -31 -31 -30 -31 -31 -30 -30 -30 -30 -30 -30 -30 -30 -29 -29 -30 -30 -30
-22 -22 -23 -23 -23 -24 -24 -24 -24 -24 -24 -24 -25 -25 -26 -27 -29 -30 -30 -31 -31 -31 -31 -32 -32 -32 -32 -31 -31 -31 -31 -31 -31 -31 -31 -31 -31 -31 -31 -31 -31 -31 -30 -30 -30 -30 -30 -29 -29 -29 -29 -29 -30 -30
-22 -22 -22 -23 -23 -24 -24 -24 -24 -24 -24 -24 -24 -25 -25 -26 -27 -29 -30 -30 -31 -31 -31 -32 -32 -32 -32 -31 -31 -31 -31 -31 -31 -31 -31 -31 -31 -31 -31 -32 -31 -31 -30 -30 -30 -30 -30 -29 -29 -29 -29 -29 -30 -30
-22 -22 -22 -23 -23 -23 -24 -24 -24 -24 -24 -24 -24 -25 -25 -25 -26 -27 -28 -30 -31 -31 -31 -31 -32 -32 -32 -31 -31 -31 -31 -31 -31 -31 -31 -31 -30 -31 -31 -31 -31 -31 -31 -30 -30 -30 -30 -30 -30 -30 -29 -29 -30 -30
-22 -22 -22 -22 -23 -23 -24 -24 -24 -24 -25 -25 -25 -25 -25 -25 -25 -26 -27 -28 -30 -31 -31 -31 -32 -32 -32 -32 -32 -31 -31 -31 -31 -31 -31 -30 -30 -30 -31 -31 -31 -31 -31 -30 -30 -30 -30 -30 -30 -30 -30 -30 -30 -30
-21 -21 -22 -22 -23 -23 -23 -24 -24 -25 -25 -25 -25 -25 -25 -25 -25 -26 -26 -27 -28 -30 -30 -31 -31 -32 -32 -32 -32 -32 -31 -31 -31 -31 -31 -30 -30 -30 -31 -31 -31 -31 -30 -30 -30 -30 -30 -30 -30 -30 -30 -30 -30 -30
-21 -22 -22 -22 -23 -23 -23 -24 -24 -24 -25 -25 -25 -25 -25 -25 -25 -25 -26 -26 -27 -27 -29 -30 -31 -31 -31 -31 -31 -31 -31 -31 -31 -31 -31 -31 -31 -30 -30 -30 -30 -30 -30 -30 -30 -30 -30 -30 -30 -30 -30 -30 -30 -30
-22 -22 -22 -22 -22 -23 -23 -24 -24 -24 -25 -25 -25 -25 -25 -25 -25 -25 -26 -26 -26 -27 -27 -28 -29 -30 -31 -31 -31 -31 -31 -31 -31 -31 -31 -31 -31 -31 -30 -30 -30 -30 -30 -30 -30 -30 -30 -30 -30 -30 -30 -30 -30 -30
-22 -22 -22 -22 -22 -23 -23 -24 -24 -24 -24 -25 -25 -25 -26 -26 -26 -26 -26 -26 -26 -26 -27 -27 -28 -28 -29 -30 -31 -31 -31 -31 -32 -32 -31 -31 -31 -31 -31 -31 -30 -30 -30 -30 -30 -30 -30 -30 -30 -30 -30 -30 -30 -30
-22 -22 -22 -22 -22 -22 -23 -24 -24 -24 -24 -25 -25 -25 -26 -26 -26 -26 -26 -26 -26 -26 -26 -27 -27 -28 -28 -28 -29 -30 -31 -31 -31 -31 -31 -31 -31 -31 -31 -31 -31 -31 -31 -31 -31 -31 -31 -30 -30 -30 -30 -30 -30 -30
-23 -23 -23 -23 -23 -23 -23 -23 -24 -24 -25 -25 -25 -25 -25 -26 -26 -26 -26 -26 -26 -26 -27 -27 -27 -27 -27 -28 -28 -28 -29 -30 -30 -31 -31 -31 -31 -31 -31 -31 -32 -31 -31 -31 -31 -31 -31 -31 -31 -31 -31 -30 -30 -30
-23 -23 -23 -23 -23 -23 -23 -24 -24 -24 -25 -25 -25 -25 -25 -26 -26 -26 -26 -27 -27 -27 -27 -27 -27 -27 -27 -27 -27 -28 -28 -29 -29 -30 -30 -30 -30 -31 -31 -31 -32 -32 -32 -32 -32 -32 -32 -32 -32 -32 -31 -31 -31 -31
-24 -24 -23 -23 -24 -23 -23 -24 -24 -25 -25 -25 -25 -25 -25 -26 -26 -26 -26 -27 -27 -27 -27 -27 -27 -27 -27 -28 -28 -28 -28 -28 -28 -29 -30 -30 -30 -30 -31 -31 -31 -32 -32 -32 -32 -32 -33 -33 -32 -32 -32 -32 -31 -31
-24 -24 -24 -24 -24 -24 -24 -24 -24 -25 -25 -25 -25 -25 -25 -25 -26 -26 -26 -26 -27 -27 -28 -28 -28 -28 -28 -28 -28 -28 -28 -28 -28 -28 -29 -29 -30 -30 -30 -31 -31 -32 -32 -33 -33 -34 -33 -33 -33 -32 -33 -32 -32 -32
-25 -25 -24 -24 -24 -24 -25 -25 -24 -25 -25 -26 -26 -25 -25 -26 -26 -26 -26 -26 -27 -27 -28 -28 -28 -28 -28 -28 -28 -28 -28 -28 -28 -28 -28 -29 -29 -30 -30 -31 -31 -32 -33 -33 -33 -34 -34 -34 -34 -34 -33 -33 -33 -33
-26 -25 -25 -25 -24 -25 -25 -25 -25 -25 -25 -26 -26 -26 -25 -25 -26 -26 -26 -26 -27 -27 -27 -28 -28 -28 -28 -29 -29 -29 -29 -28 -28 -28 -28 -28 -29 -29 -30 -30 -31 -31 -32 -33 -34 -34 -34 -34 -34 -34 -34 -33 -33 -33
-27 -26 -25 -25 -25 -26 -26 -26 -26 -26 -26 -26 -26 -26 -26 -26 -26 -26 -26 -27 -27 -27 -27 -27 -28 -28 -28 -29 -29 -29 -29 -29 -29 -29 -29 -29 -29 -29 -29 -30 -30 -31 -32 -33 -34 -34 -35 -35 -35 -34 -34 -34 -34 -34
-27 -26 -25 -25 -26 -26 -26 -26 -27 -27 -27 -27 -26 -26 -26 -26 -26 -26 -26 -27 -27 -27 -27 -28 -28 -28 -28 -28 -29 -29 -29 -29 -29 -29 -29 -29 -29 -29 -29 -30 -31 -32 -33 -34 -34 -35 -36 -36 -36 -35 -35 -35 -34 -34
-27 -26 -26 -26 -26 -27 -27 -27 -27 -28 -28 -27 -26 -26 -26 -26 -26 -26 -26 -27 -27 -27 -27 -28 -28 -28 -28 -29 -29 -29 -29 -29 -29 -29 -29 -29 -29 -29 -30 -30 -31 -32 -33 -34 -35 -35 -36 -37 -37 -37 -37 -36 -36 -35
-26 -26 -26 -27 -27 -27 -27 -27 -28 -28 -28 -27 -27 -27 -26 -26 -26 -26 -26 -27 -27 -27 -28 -28 -28 -28 -29 -29 -29 -29 -29 -29 -29 -30 -30 -30 -30 -30 -30 -30 -31 -32 -33 -34 -35 -35 -36 -38 -38 -38 -38 -37 -37 -36
-27 -27 -28 -28 -28 -28 -28 -28 -28 -27 -27 -27 -27 -27 -27 -27 -27 -27 -27 -27 -27 -28 -28 -28 -28 -29 -29 -29 -29 -29 -29 -29 -30 -30 -30 -30 -30 -30 -30 -31 -32 -32 -33 -34 -35 -36 -37 -38 -38 -38 -38 -38 -37 -37
-28 -28 -28 -28 -29 -28 -28 -28 -28 -28 -27 -27 -27 -27 -27 -27 -27 -27 -27 -28 -28 -28 -28 -28 -28 -29 -29 -29 -29 -30 -30 -30 -30 -30 -30 -30 -31 -31 -31 -31 -32 -32 -33 -34 -35 -36 -36 -37 -38 -38 -38 -37 -37 -37
-29 -29 -29 -29 -28 -28 -29 -28 -28 -28 -27 -27 -27 -27 -27 -27 -26 -26 -27 -28 -28 -28 -28 -28 -29 -29 -29 -29 -29 -30 -30 -30 -30 -30 -30 -31 -31 -31 -31 -31 -32 -33 -33 -34 -35 -36 -36 -36 -37 -38 -38 -38 -37 -37
-29 -29 -29 -29 -28 -28 -28 -28 -27 -27 -27 -27 -27 -27 -27 -26 -26 -26 -27 -27 -27 -28 -28 -28 -29 -29 -29 -29 -29 -30 -30 -30 -30 -30 -31 -31 -31 -31 -32 -32 -32 -33 -34 -34 -35 -36 -36 -37 -37 -37 -38 -38 -38 -38
-30 -29 -29 -29 -28 -28 -28 -28 -27 -27 -27 -27 -27 -27 -27 -26 -27 -27 -27 -26 -27 -27 -28 -28 -29 -29 -29 -29 -29 -30 -30 -30 -31 -31 -31 -31 -32 -32 -32 -32 -32 -33 -34 -34 -35 -36 -36 -37 -37 -37 -37 -38 -38 -38
-29 -29 -29 -29 -29 -28 -28 -28 -27 -28 -28 -27 -27 -27 -27 -27 -27 -27 -26 -27 -27 -28 -28 -29 -29 -29 -30 -30 -30 -30 -30 -31 -31 -31 -31 -31 -32 -32 -32 -33 -33 -33 -34 -34 -35 -35 -36 -37 -37 -37 -38 -38 -38 -38
Height
5481 5476 5470 5463 5455 5446 5437 5429 5422 5416 5412 5408 5404 5399 5394 5390 5385 5380 5375 5370 5368 5363 5359 5358 5356 5356 5359 5363 5365 5368 5369 5371 5374 5375 5376 5377 5378 5380 5382 5385 5388 5392 5395 5396 5397 5398 5400 5400 5399 5398 5396 5395 5395 5395
5478 5472 5467 5460 5453 5445 5437 5429 5421 5414 5409 5405 5402 5399 5395 5391 5387 5382 5377 5373 5369 5366 5363 5360 5358 5358 5360 5362 5363 5365 5366 5369 5372 5374 5372 5373 5374 5376 5378 5381 5384 5388 5389 5391 5393 5393 5393 5391 5390 5390 5389 5389 5389 5388
5474 5469 5464 5458 5451 5444 5436 5428 5420 5413 5407 5403 5400 5397 5394 5391 5387 5383 5379 5375 5372 5368 5366 5363 5361 5361 5361 5361 5362 5364 5366 5369 5371 5371 5370 5372 5373 5375 5377 5379 5381 5383 5384 5386 5387 5387 5386 5386 5385 5385 5384 5383 5382 5379
5470 5465 5461 5455 5449 5442 5435 5428 5420 5412 5406 5400 5397 5394 5392 5389 5387 5384 5381 5378 5375 5372 5369 5367 5364 5363 5361 5361 5363 5364 5366 5368 5370 5370 5370 5371 5373 5374 5376 5378 5378 5380 5381 5382 5382 5382 5381 5380 5379 5378 5377 5374 5372 5370
5467 5463 5458 5453 5447 5441 5434 5428 5420 5413 5406 5399 5395 5392 5390 5387 5385 5383 5380 5378 5375 5374 5371 5369 5367 5365 5363 5363 5364 5365 5366 5367 5369 5370 5370 5371 5372 5374 5375 5375 5376 5376 5376 5376 5376 5376 5374 5373 5372 5370 5368 5365 5362 5359
5463 5459 5455 5451 5446 5440 5434 5427 5421 5414 5407 5400 5393 5389 5387 5385 5383 5381 5379 5377 5375 5372 5371 5369 5368 5366 5366 5365 5364 5365 5366 5367 5368 5369 5369 5369 5370 5371 5372 5371 5370 5370 5369 5368 5368 5367 5367 5366 5364 5362 5359 5356 5353 5350
5459 5456 5452 5448 5443 5439 5433 5427 5421 5415 5408 5401 5395 5388 5384 5383 5381 5380 5378 5376 5374 5372 5369 5368 5366 5365 5365 5365 5365 5364 5364 5365 5366 5366 5366 5366 5367 5367 5367 5367 5365 5364 5363 5363 5362 5362 5361 5360 5357 5354 5351 5348 5344 5340
5456 5452 5449 5445 5441 5436 5432 5427 5421 5415 5409 5403 5396 5389 5383 5380 5378 5377 5375 5373 5372 5370 5366 5363 5362 5363 5363 5363 5364 5364 5364 5364 5365 5365 5364 5364 5364 5361 5361 5360 5359 5359 5360 5360 5359 5358 5356 5355 5352 5350 5346 5343 5338 5334
5452 5449 5445 5441 5438 5434 5430 5426 5421 5415 5410 5404 5398 5391 5385 5380 5376 5375 5372 5371 5369 5369 5364 5359 5356 5358 5360 5361 5363 5363 5363 5363 5364 5363 5362 5362 5359 5356 5353 5350 5352 5355 5357 5357 5356 5355 5353 5351 5349 5346 5343 5338 5333 5328
5449 5445 5442 5438 5435 5431 5427 5424 5420 5415 5410 5405 5399 5393 5387 5382 5376 5372 5371 5369 5367 5366 5363 5359 5357 5357 5359 5360 5361 5362 5361 5361 5361 5361 5359 5358 5355 5352 5347 5343 5345 5350 5353 5355 5354 5353 5351 5349 5346 5343 5340 5335 5330 5324
5444 5441 5438 5435 5431 5428 5425 5421 5418 5414 5410 5405 5400 5395 5389 5384 5378 5373 5369 5367 5365 5364 5362 5360 5358 5357 5358 5358 5358 5359 5358 5358 5358 5358 5356 5354 5352 5351 5348 5346 5347 5350 5352 5352 5352 5351 5350 5348 5345 5341 5337 5332 5326 5320
5440 5437 5434 5431 5428 5424 5422 5418 5415 5412 5408 5405 5400 5395 5390 5386 5380 5375 5370 5366 5364 5362 5360 5359 5358 5358 5357 5357 5357 5357 5356 5356 5355 5354 5352 5351 5351 5350 5349 5349 5349 5350 5351 5351 5350 5350 5348 5346 5343 5339 5336 5331 5325 5318
5435 5432 5429 5427 5424 5421 5417 5415 5412 5409 5406 5403 5400 5396 5391 5387 5382 5376 5372 5368 5363 5361 5359 5358 5357 5356 5355 5354 5354 5353 5353 5353 5353 5351 5349 5350 5350 5350 5350 5349 5349 5349 5349 5348 5348 5347 5346 5343 5341 5338 5334 5330 5325 5318
5431 5429 5425 5422 5419 5417 5414 5411 5408 5405 5403 5401 5398 5394 5390 5386 5382 5378 5373 5369 5366 5361 5358 5356 5354 5354 5352 5351 5350 5350 5350 5350 5350 5349 5348 5347 5347 5347 5347 5347 5347 5347 5346 5345 5344 5344 5342 5341 5339 5336 5333 5330 5326 5321
5425 5424 5421 5418 5414 5412 5409 5406 5404 5401 5399 5396 5394 5392 5388 5385 5381 5377 5373 5369 5366 5362 5358 5355 5352 5351 5349 5348 5348 5347 5347 5346 5346 5346 5344 5343 5343 5343 5343 5343 5342 5342 5341 5341 5340 5339 5338 5337 5336 5334 5332 5329 5326 5323
5418 5418 5415 5413 5410 5407 5404 5401 5399 5397 5395 5392 5389 5387 5385 5383 5379 5376 5373 5369 5365 5362 5358 5355 5352 5349 5347 5345 5344 5344 5343 5342 5341 5339 5339 5338 5338 5337 5337 5336 5335 5335 5335 5334 5334 5333 5333 5332 5331 5330 5329 5327 5324 5322
5410 5410 5408 5407 5404 5402 5399 5396 5393 5391 5389 5387 5385 5382 5381 5379 5377 5374 5371 5368 5365 5361 5358 5354 5351 5348 5345 5343 5341 5339 5338 5336 5334 5333 5332 5332 5331 5330 5329 5329 5328 5326 5326 5325 5325 5325 5324 5324 5324 5324 5324 5323 5322 5320
5403 5402 5401 5400 5398 5395 5393 5390 5387 5386 5383 5381 5379 5377 5375 5374 5372 5371 5368 5366 5363 5360 5357 5353 5351 5347 5344 5341 5338 5335 5332 5330 5328 5326 5325 5324 5323 5321 5320 5319 5318 5317 5316 5315 5315 5314 5314 5314 5315 5316 5316 5316 5316 5315
5394 5394 5393 5392 5391 5388 5386 5385 5381 5379 5377 5374 5372 5371 5370 5367 5366 5364 5363 5362 5360 5357 5354 5351 5348 5346 5342 5339 5335 5332 5329 5326 5323 5319 5316 5313 5311 5309 5307 5305 5304 5303 5302 5302 5302 5302 5302 5303 5304 5305 5306 5307 5308 5308
5385 5385 5384 5384 5383 5381 5379 5377 5375 5372 5371 5369 5365 5363 5362 5361 5359 5358 5356 5356 5354 5353 5351 5348 5345 5342 5339 5336 5333 5329 5326 5322 5319 5315 5310 5306 5302 5298 5295 5292 5290 5288 5287 5286 5286 5286 5288 5289 5290 5291 5293 5295 5297 5299
5374 5374 5374 5374 5373 5373 5372 5369 5366 5365 5362 5361 5358 5355 5355 5353 5352 5350 5348 5347 5347 5346 5345 5343 5341 5338 5335 5332 5329 5325 5322 5318 5314 5310 5305 5300 5294 5289 5284 5279 5276 5272 5270 5269 5268 5269 5270 5273 5274 5276 5278 5281 5283 5286
5364 5363 5362 5363 5363 5363 5364 5361 5357 5356 5354 5352 5350 5348 5347 5346 5344 5342 5342 5340 5339 5338 5338 5336 5335 5333 5330 5327 5324 5320 5316 5313 5309 5304 5299 5293 5287 5282 5275 5269 5264 5260 5255 5252 5251 5251 5253 5256 5258 5261 5263 5266 5269 5273
5352 5352 5352 5352 5351 5353 5356 5353 5350 5347 5343 5343 5341 5340 5339 5338 5336 5335 5335 5334 5331 5330 5330 5329 5327 5326 5323 5321 5318 5314 5310 5306 5302 5297 5292 5285 5278 5272 5265 5258 5251 5245 5240 5234 5232 5233 5236 5239 5243 5245 5248 5252 5256 5260
5340 5340 5340 5340 5342 5342 5343 5342 5340 5338 5334 5332 5330 5331 5331 5329 5327 5327 5328 5325 5322 5323 5322 5321 5320 5318 5317 5315 5312 5308 5305 5300 5296 5291 5286 5279 5271 5264 5256 5248 5240 5232 5226 5222 5218 5217 5219 5222 5225 5229 5234 5239 5243 5246
5327 5329 5329 5329 5330 5334 5334 5332 5330 5327 5324 5322 5323 5322 5321 5318 5318 5318 5318 5317 5313 5314 5313 5313 5312 5311 5310 5308 5306 5302 5299 5295 5290 5285 5279 5273 5265 5257 5248 5240 5231 5224 5217 5213 5210 5209 5208 5210 5212 5215 5219 5225 5230 5234
5314 5314 5315 5318 5322 5322 5322 5321 5319 5316 5313 5314 5314 5312 5310 5309 5309 5309 5308 5306 5306 5306 5305 5305 5304 5304 5303 5301 5299 5296 5293 5289 5284 5278 5273 5267 5260 5251 5242 5233 5225 5219 5212 5208 5205 5203 5202 5203 5204 5206 5209 5212 5216 5220
5300 5304 5306 5310 5310 5310 5310 5308 5306 5304 5305 5305 5305 5304 5302 5302 5302 5302 5300 5299 5298 5298 5297 5297 5296 5296 5295 5294 5292 5289 5286 5282 5278 5273 5268 5261 5254 5246 5237 5229 5221 5214 5207 5203 5201 5199 5197 5197 5198 5199 5201 5203 5206 5210
5292 5296 5297 5297 5296 5297 5296 5294 5293 5294 5295 5295 5296 5295 5294 5294 5294 5292 5291 5290 5290 5289 5289 5288 5288 5288 5287 5287 5285 5282 5279 5276 5272 5267 5262 5256 5249 5242 5234 5225 5218 5211 5204 5199 5197 5194 5193 5192 5193 5193 5194 5195 5196 5200
5282 5284 5284 5284 5284 5283 5283 5283 5283 5283 5284 5285 5287 5286 5285 5284 5281 5277 5276 5278 5279 5279 5279 5280 5280 5279 5279 5279 5278 5275 5273 5270 5266 5261 5256 5250 5244 5237 5230 5222 5215 5208 5202 5197 5193 5191 5189 5188 5188 5188 5188 5189 5191 5192
5269 5270 5271 5272 5272 5273 5274 5272 5274 5274 5275 5276 5276 5276 5275 5273 5269 5266 5265 5265 5267 5268 5270 5271 5271 5271 5272 5271 5270 5268 5266 5263 5259 5255 5250 5245 5239 5233 5226 5219 5212 5205 5198 5193 5190 5187 5185 5183 5182 5182 5183 5184 5185 5187
5257 5259 5260 5261 5262 5263 5262 5263 5263 5263 5264 5265 5265 5265 5265 5264 5261 5259 5257 5257 5258 5259 5261 5262 5263 5263 5263 5264 5263 5261 5259 5256 5253 5249 5245 5240 5234 5229 5223 5216 5209 5203 5196 5191 5187 5184 5182 5180 5178 5177 5177 5177 5178 5179
5245 5247 5248 5249 5251 5252 5252 5251 5251 5252 5253 5253 5253 5253 5254 5254 5254 5252 5251 5250 5251 5252 5253 5255 5255 5255 5256 5256 5255 5253 5251 5249 5246 5243 5239 5234 5229 5224 5219 5213 5206 5200 5194 5188 5183 5180 5177 5176 5174 5173 5172 5171 5170 5170
5234 5235 5236 5238 5240 5240 5240 5240 5241 5241 5241 5241 5241 5242 5242 5243 5244 5243 5242 5242 5243 5244 5246 5247 5247 5248 5248 5248 5247 5245 5243 5241 5239 5236 5232 5228 5224 5219 5214 5209 5203 5197 5191 5186 5180 5176 5173 5171 5169 5167 5165 5164 5163 5162
Wind_Speed
26 28 30 32 34 34 33 32 28 23 21 17 19 22 21 19 22 22 20 15 14 16 8 6 6 6 9 13 13 11 9 6 3 7 15 13 16 16 20 17 10 12 16 14 14 15 19 22 24 28 30 28 28 26
24 26 28 30 33 33 34 32 31 26 21 19 17 16 17 13 17 21 22 20 18 16 14 10 6 2 4 8 8 8 11 11 5 9 8 5 9 11 10 16 17 15 14 11 15 18 19 21 20 19 16 15 20 22
22 24 26 28 30 32 32 33 32 30 23 18 17 14 13 13 13 16 20 21 18 17 13 10 6 2 6 7 5 4 12 4 5 6 2 6 10 6 10 11 9 12 12 14 15 16 17 17 21 25 28 29 29 31
21 23 24 26 28 30 32 32 31 31 29 20 17 15 12 11 12 13 13 17 19 15 15 14 13 10 6 0 2 2 7 9 5 4 6 5 8 11 9 12 11 10 12 15 16 19 21 24 27 29 30 31 34 37
20 22 23 24 26 28 30 31 32 31 30 27 19 16 15 13 12 13 14 15 15 14 13 11 8 9 8 1 4 3 5 6 6 7 2 1 2 4 6 8 12 15 17 20 22 25 27 28 28 29 31 33 34 33
19 21 22 23 24 26 28 29 30 31 31 29 25 17 16 14 12 12 12 12 13 13 13 12 8 6 6 4 2 4 10 9 7 8 9 9 10 13 13 13 14 18 20 23 26 28 27 27 28 30 29 27 27 29
18 19 20 22 23 24 26 27 28 29 30 30 29 23 15 14 12 11 12 11 15 16 14 14 12 8 5 2 2 2 6 9 10 8 9 11 11 12 10 8 11 13 15 16 17 18 20 22 22 22 22 24 26 27
18 19 20 20 21 22 24 25 27 28 29 29 29 28 22 15 15 16 15 14 16 19 22 17 15 10 7 6 4 3 3 3 3 4 7 11 15 21 20 18 18 15 12 13 15 15 12 11 13 14 18 20 20 21
18 19 20 20 21 22 22 23 25 26 27 28 29 29 27 21 15 15 17 16 17 20 22 21 9 8 9 8 8 8 7 7 7 10 12 16 16 18 20 19 17 18 14 12 8 7 8 9 11 15 17 19 22 24
17 19 20 20 21 21 22 21 22 23 25 27 28 28 27 25 21 15 12 15 16 16 18 17 12 2 5 9 9 10 11 11 10 10 14 14 15 17 18 10 14 13 10 4 2 6 10 12 14 18 20 21 22 26
18 18 19 20 21 21 22 22 21 22 23 24 25 26 27 26 24 22 14 9 10 11 13 13 11 5 3 4 7 10 12 14 14 14 13 12 11 12 8 4 8 10 7 2 1 5 7 10 13 18 22 25 25 27
17 19 20 20 20 21 21 22 21 21 21 22 23 24 25 25 25 24 21 16 11 10 11 12 10 7 5 5 8 10 12 14 14 14 11 10 5 9 4 5 8 7 4 2 2 3 6 11 15 19 22 25 29 29
16 18 20 21 21 21 21 21 21 21 20 21 20 21 22 23 23 24 23 20 15 12 9 10 11 10 12 12 11 10 10 9 11 12 9 7 6 4 6 6 6 6 7 6 7 6 8 12 16 18 21 24 28 30
18 18 19 20 21 21 21 20 21 21 21 20 19 19 20 20 20 21 21 21 20 18 14 11 10 11 12 11 9 9 8 9 11 11 10 9 11 9 9 11 13 13 11 10 11 13 13 14 15 18 19 21 23 27
19 19 20 21 21 21 22 21 20 20 21 20 19 17 16 16 17 17 18 19 20 19 18 16 13 12 12 12 10 11 12 12 12 12 13 14 14 17 17 16 15 15 15 17 17 15 14 14 15 18 17 19 20 21
20 19 21 21 22 23 23 22 21 20 19 20 20 19 17 15 13 13 15 16 17 18 18 17 16 15 13 14 13 14 14 13 15 15 16 17 19 20 20 20 23 23 24 25 22 21 20 18 18 18 17 17 18 19
21 21 21 21 22 23 24 24 22 20 19 20 19 20 19 17 14 11 11 12 14 15 16 16 17 17 17 14 12 14 16 20 22 21 21 22 22 23 26 26 28 27 26 25 25 25 26 25 25 22 21 19 18 17
24 22 23 22 23 23 25 24 24 19 18 22 21 20 20 21 17 14 12 11 12 12 13 14 15 16 18 17 18 18 17 20 21 24 28 28 29 30 31 32 34 34 35 34 33 32 33 32 29 26 23 21 19 19
27 25 25 25 25 25 27 25 26 23 20 21 23 21 18 21 21 20 17 15 14 14 14 14 15 14 16 17 18 19 18 19 21 24 27 28 30 35 40 43 44 44 44 45 43 42 39 35 34 30 28 25 22 21
30 29 28 28 28 28 28 29 27 26 23 21 24 24 20 20 22 21 22 19 17 16 16 15 15 16 16 17 18 19 20 21 21 21 24 28 30 33 35 38 41 43 47 50 49 48 41 37 38 38 38 35 33 30
32 32 31 31 31 31 30 29 29 28 27 22 24 26 23 23 23 22 22 23 21 20 18 19 17 17 17 18 19 20 21 22 24 25 25 25 28 31 33 36 38 40 41 41 42 43 44 43 41 42 37 36 32 31
34 34 34 34 35 35 30 29 30 29 30 28 25 27 25 23 25 25 23 23 21 23 21 21 20 18 18 18 19 21 22 24 25 27 29 29 29 29 29 30 32 35 39 40 40 38 40 38 39 39 38 38 35 33
35 36 38 38 40 36 31 28 29 30 32 30 29 27 26 28 28 28 24 21 23 23 23 23 23 21 19 20 20 22 23 25 27 28 31 33 34 35 34 34 35 34 34 38 41 40 37 39 42 39 39 42 42 37
38 40 41 43 41 38 33 27 27 30 33 34 36 34 31 30 31 27 24 23 26 22 23 24 24 23 21 20 21 23 24 25 27 29 31 34 36 37 38 38 37 36 31 28 26 26 32 39 44 51 46 37 35 33
41 42 44 43 41 35 31 29 28 33 36 37 36 35 35 34 32 29 25 24 27 24 23 23 23 23 22 20 21 23 24 24 27 29 32 35 38 39 39 40 39 35 30 25 22 20 23 32 37 45 52 52 49 39
43 46 46 44 39 34 30 28 30 34 37 34 34 34 33 30 24 18 15 22 24 23 23 23 23 23 22 20 21 22 22 24 27 30 32 35 38 40 40 40 39 35 29 24 21 18 18 26 31 33 35 37 39 41
47 45 42 36 33 30 27 29 34 37 34 31 29 28 27 24 22 22 23 24 25 23 23 23 22 22 22 20 20 22 22 24 26 28 31 34 37 39 40 40 37 35 29 23 20 18 15 15 20 29 30 33 34 33
42 37 34 32 31 28 30 34 37 36 32 31 29 30 31 29 30 31 33 32 28 25 23 22 21 22 21 20 20 21 21 22 24 27 30 34 37 40 40 39 36 33 29 23 20 19 17 15 16 16 17 18 20 32
33 30 29 28 28 31 33 35 34 31 31 30 30 29 32 34 37 38 36 31 28 25 23 21 20 21 21 20 20 21 21 22 23 25 29 32 35 38 41 39 36 33 29 24 20 19 18 17 18 17 16 16 16 17
27 26 27 28 29 28 29 33 30 29 30 31 29 29 29 30 31 32 29 24 22 23 23 21 20 21 20 20 20 21 21 21 22 26 29 31 33 36 39 39 37 33 31 27 21 18 17 16 18 19 19 18 19 19
29 30 32 33 34 35 37 36 35 34 34 32 30 29 27 26 26 23 21 20 21 20 21 21 19 19 19 20 20 21 21 21 22 26 29 29 31 34 36 38 37 33 31 27 23 19 17 17 16 16 21 25 24 23
30 32 33 34 34 33 34 35 35 35 33 34 33 33 33 31 26 23 23 23 20 20 22 20 20 19 19 19 20 22 22 23 24 26 30 29 29 32 34 36 38 35 31 29 25 21 19 18 17 17 17 17 20 26
33 33 34 34 33 31 31 31 30 27 27 25 24 25 26 26 24 23 24 23 21 21 22 21 20 19 19 18 21 22 22 23 25 27 29 29 29 30 32 34 36 36 33 30 28 23 20 19 19 19 19 19 20 21
Wind_Direction
345 350 354 0 5 8 7 2 352 342 344 338 347 4 4 14 29 26 17 12 346 2 5 346 319 300 221 242 291 270 242 185 191 310 307 278 265 254 247 226 226 252 243 252 258 283 293 288 286 282 281 280 277 277
344 350 356 1 6 8 10 6 1 349 340 342 337 348 4 24 28 29 31 30 28 25 27 29 23 34 216 254 247 258 163 149 261 294 257 260 256 263 237 228 230 249 252 262 269 276 284 284 282 283 284 288 290 289
343 349 355 1 6 9 11 9 6 0 345 337 339 333 349 358 1 5 15 23 26 26 22 17 15 357 326 290 273 236 197 176 278 237 129 233 268 273 228 253 249 244 253 261 271 276 277 274 272 287 296 298 296 294
341 348 353 360 5 9 11 12 9 5 359 340 334 336 323 332 344 355 10 15 17 26 36 34 34 15 9 43 340 233 225 196 230 234 199 215 230 250 246 271 265 256 269 273 275 270 271 275 281 285 288 288 287 289
338 345 350 357 3 8 11 12 12 10 5 358 337 330 335 317 317 327 339 346 351 1 2 8 24 14 2 12 187 244 211 210 237 292 314 237 237 284 284 276 278 273 274 277 274 270 270 274 280 284 286 287 287 289
337 340 346 353 0 5 10 11 12 12 11 7 358 334 325 331 326 330 340 350 353 359 348 350 334 344 6 27 197 179 223 253 272 286 295 295 304 301 294 282 265 261 271 273 272 272 275 280 284 286 287 286 284 283
335 338 341 348 355 2 6 10 11 13 13 12 9 360 330 318 323 329 332 339 348 349 340 323 309 307 288 302 6 307 243 248 258 265 277 287 282 282 287 283 266 266 282 287 289 285 282 287 292 298 306 305 298 293
332 335 338 342 348 355 1 7 10 12 13 14 14 11 2 328 309 311 319 323 328 335 335 320 289 276 269 258 262 308 300 271 275 277 282 295 303 300 295 277 263 262 274 282 288 294 300 307 310 310 311 312 312 305
331 333 335 339 341 347 353 360 6 9 11 14 15 16 15 7 341 313 308 314 323 333 341 345 313 260 253 259 261 269 285 288 300 297 302 305 308 311 311 284 252 243 253 272 291 325 346 352 341 335 331 321 318 322
323 329 332 334 339 340 344 349 358 5 7 11 14 15 17 16 13 357 332 317 323 337 354 1 5 314 268 267 282 282 279 285 295 291 307 329 304 327 329 291 214 216 223 229 338 5 3 353 344 341 345 342 333 333
315 319 324 331 335 338 339 341 347 353 2 6 9 14 16 16 16 15 9 356 341 342 352 4 4 359 305 295 281 286 292 296 302 307 308 314 302 336 352 92 164 173 174 167 346 356 356 355 351 350 351 351 345 345
321 317 317 321 328 332 335 337 338 343 349 358 3 8 12 16 18 16 14 5 354 342 338 342 342 329 310 301 309 310 310 309 311 314 305 289 281 322 262 203 175 178 184 203 273 330 352 355 354 357 354 352 354 352
319 322 321 319 320 323 329 334 336 335 338 345 353 360 5 12 16 16 13 10 1 346 335 326 334 325 306 295 287 304 299 311 315 318 290 272 245 286 211 215 215 241 241 246 255 281 318 337 342 342 344 350 354 358
306 315 320 320 316 317 319 326 330 333 331 332 338 348 357 7 12 13 12 12 9 6 351 329 312 316 319 331 293 287 295 299 325 318 302 271 240 237 253 262 262 265 263 261 266 277 293 312 327 340 340 345 353 1
292 303 313 317 319 316 314 316 321 327 329 325 326 332 345 355 4 10 12 12 10 8 3 358 341 315 306 303 312 294 286 289 298 297 287 276 263 253 254 258 261 259 262 265 272 281 293 297 309 325 330 339 344 354
281 292 302 315 320 318 312 310 313 320 323 322 318 319 322 332 345 357 6 11 13 10 7 4 356 344 327 308 299 283 292 294 279 270 268 271 270 265 259 259 255 260 264 266 263 265 275 283 295 305 310 316 333 340
274 280 286 301 311 316 314 308 307 312 314 313 314 312 308 309 319 332 344 356 4 9 10 5 0 351 350 345 319 296 280 273 275 279 272 269 265 267 260 256 261 262 258 259 257 259 266 273 280 285 291 297 300 316
273 275 280 286 299 305 310 309 303 304 300 304 308 312 309 302 298 303 313 325 338 351 357 3 0 353 354 349 339 335 323 312 301 289 281 275 272 268 265 264 263 262 262 260 261 267 268 269 271 271 274 279 285 290
274 276 277 278 291 300 305 309 303 301 296 296 298 304 307 300 299 292 295 302 313 324 335 341 346 350 348 351 349 343 335 322 310 302 294 289 280 274 268 266 265 265 265 264 266 270 269 267 272 269 269 271 274 275
272 275 276 277 285 296 303 306 303 297 294 291 292 297 301 298 297 293 289 286 291 300 311 319 325 334 338 340 342 344 343 338 330 317 307 302 297 292 288 284 279 274 269 266 266 268 266 268 272 270 269 272 273 270
268 271 273 276 281 291 301 302 298 294 289 288 286 287 293 295 293 293 293 288 283 287 293 301 310 318 323 328 331 334 338 339 339 336 329 316 309 304 298 294 290 285 280 273 269 265 263 253 254 253 260 258 255 262
265 268 271 275 280 287 298 297 291 291 289 289 285 284 285 288 291 290 292 291 283 279 284 289 296 302 309 317 323 327 330 331 335 337 337 335 331 325 316 310 301 291 285 281 274 265 260 250 254 260 254 247 252 253
267 267 269 274 278 284 295 293 287 285 286 284 283 285 288 287 287 287 295 291 281 283 281 283 288 295 303 312 318 320 325 327 330 335 337 337 337 337 333 328 320 309 294 281 273 265 255 245 240 245 244 240 245 251
267 267 270 272 277 287 296 289 283 280 278 279 282 291 293 291 287 288 296 286 281 285 284 285 287 291 296 304 312 316 322 325 329 334 337 338 338 340 339 337 333 327 317 303 288 272 249 241 236 236 242 238 237 240
264 266 268 272 277 290 288 282 280 278 280 283 288 292 292 288 290 294 293 278 277 281 285 288 288 289 292 299 307 312 319 326 330 334 338 339 340 343 343 342 340 336 327 315 304 288 258 243 243 243 242 244 245 245
262 264 267 275 284 286 282 278 274 275 278 286 291 291 291 291 292 294 279 272 278 280 284 285 287 289 290 294 302 308 316 326 331 335 338 340 342 345 347 346 345 342 335 326 313 301 276 248 242 246 247 248 246 243
259 266 273 281 283 279 274 270 269 272 279 282 281 289 296 295 284 285 296 301 295 284 281 282 283 286 286 289 298 304 315 326 331 335 338 340 344 346 349 349 347 344 340 332 323 307 289 269 265 256 256 250 242 242
265 272 276 275 275 274 267 264 266 272 274 272 277 290 294 296 293 291 289 291 297 291 284 276 276 280 282 285 294 301 310 321 330 336 341 341 344 347 349 351 349 347 343 335 328 317 297 277 264 263 260 259 251 247
269 269 266 266 265 262 264 267 269 269 269 271 284 289 294 298 296 291 286 281 281 281 277 267 267 273 277 281 291 298 305 316 327 337 342 342 343 347 348 350 349 349 348 341 331 325 309 282 269 265 260 257 254 252
261 258 254 254 254 255 258 261 265 269 273 281 285 290 296 297 290 285 274 268 266 275 269 255 260 267 273 278 289 295 301 309 322 332 338 341 342 346 348 350 349 349 349 345 337 329 322 308 277 262 259 257 252 248
253 253 254 257 258 260 264 268 271 272 273 278 279 283 278 294 300 292 276 260 259 265 256 252 257 263 270 278 289 295 300 305 314 327 333 336 339 343 347 350 349 347 348 346 338 330 324 318 312 291 263 253 251 249
253 254 256 259 261 265 268 269 272 276 279 280 277 276 270 272 288 283 276 268 262 259 254 254 256 262 271 279 291 297 298 302 308 318 327 330 334 338 344 349 350 347 346 346 341 332 323 316 310 305 297 288 275 262
260 260 261 262 266 267 270 273 275 274 275 274 271 267 267 269 273 277 275 270 261 258 256 256 256 261 266 282 298 298 296 298 304 315 324 326 327 332 338 345 349 347 345 344 343 335 323 315 310 303 297 291 285 280